GW5140 Weather Reports


Display with metric or nautical units.
time (UTC)temp
F
wind
direction
speed
MPH
gust
MPH
rain 1hr
in
rain 24hr
in
rain mn
in
humidity
%
barometer
mb
20260510033255 48 299 0.0 0.0 0.00 0.23 0.23 92 1014.1
20260510032751 49 300 0.0 0.0 0.00 0.23 0.23 92 1014.0
20260510032248 48 303 0.0 0.0 0.00 0.23 0.23 92 1013.8
20260510031743 49 303 0.0 0.0 0.00 0.23 0.23 92 1013.9
20260510031239 49 304 0.0 0.0 0.00 0.23 0.23 92 1013.7
20260510030739 49 308 0.0 0.0 0.00 0.23 0.23 92 1013.8
20260510030236 49 308 0.0 0.0 0.00 0.23 0.23 92 1013.6
20260510025733 49 308 0.0 0.0 0.00 0.23 0.23 92 1013.7
20260510025231 50 308 0.0 0.0 0.00 0.23 0.23 92 1013.6
20260510024728 49 308 0.0 0.0 0.00 0.23 0.23 92 1013.6
20260510024224 50 308 0.0 0.0 0.00 0.23 0.23 92 1013.7
20260510023719 50 311 0.0 0.0 0.00 0.23 0.23 91 1013.6
20260510023217 50 311 0.0 0.0 0.00 0.23 0.23 91 1013.6
20260510022713 50 311 0.0 0.0 0.00 0.23 0.23 91 1013.5
20260510022208 50 313 0.0 0.0 0.00 0.23 0.23 91 1013.4
20260510021703 50 313 0.0 0.0 0.00 0.23 0.23 91 1013.5
20260510021201 51 313 0.0 0.0 0.00 0.23 0.23 91 1013.3
20260510020655 51 313 0.0 0.0 0.00 0.23 0.23 91 1013.3
20260510020151 51 313 0.0 0.0 0.00 0.23 0.23 91 1013.2
20260510015647 51 313 0.0 0.0 0.00 0.23 0.23 91 1013.2
20260510015144 51 313 0.0 0.0 0.00 0.23 0.23 90 1013.2
20260510014644 52 313 0.0 0.0 0.00 0.23 0.23 90 1013.0
20260510014142 51 313 0.0 0.0 0.00 0.23 0.23 90 1012.9
20260510013636 52 313 0.0 0.0 0.00 0.23 0.23 90 1013.0
20260510013132 52 313 0.0 0.0 0.00 0.23 0.23 89 1012.8
20260510012632 52 312 0.0 0.0 0.00 0.23 0.23 89 1012.9
20260510012128 53 312 0.0 0.0 0.00 0.23 0.23 89 1012.4
20260510011623 53 312 0.0 0.0 0.00 0.23 0.23 88 1012.6
20260510011119 53 312 0.0 0.0 0.00 0.23 0.23 88 1012.4
20260510010615 53 313 0.0 0.0 0.00 0.23 0.23 88 1012.4
20260510010113 53 314 0.0 0.0 0.00 0.23 0.23 88 1012.4
20260510005608 54 311 0.0 0.0 0.00 0.23 0.23 87 1012.3
20260510005106 54 305 0.0 0.0 0.00 0.23 0.23 87 1012.3
20260510004604 54 305 0.0 0.0 0.00 0.23 0.23 86 1012.4
20260510004102 55 306 0.0 0.0 0.00 0.23 0.23 85 1012.3
20260510003558 55 328 0.0 0.0 0.00 0.23 0.23 85 1012.4
20260510003054 56 334 0.0 0.0 0.00 0.23 0.23 85 1011.9
20260510002548 56 309 0.0 0.0 0.00 0.23 0.23 85 1012.1
20260510002046 56 358 0.0 0.0 0.00 0.23 0.23 85 1012.1
20260510001543 57 310 2.0 2.0 0.00 0.23 0.23 82 1012.1
20260510001042 57 357 0.0 1.0 0.00 0.23 0.23 81 1011.8
20260510000542 58 250 0.0 0.0 0.00 0.23 0.23 80 1011.7
20260510000039 59 297 0.0 0.0 0.00 0.23 0.23 78 1011.6
20260509235535 60 272 0.0 1.0 0.00 0.23 0.23 76 1011.7
20260509235032 61 338 0.0 1.0 0.00 0.23 0.23 73 1011.5
20260509234528 61 58 2.0 2.0 0.00 0.23 0.23 70 1011.3
20260509234026 62 260 3.0 6.0 0.00 0.23 0.23 71 1011.4
20260509233523 62 298 1.0 2.0 0.00 0.23 0.23 69 1011.5
20260509233021 62 294 0.0 0.0 0.00 0.23 0.23 70 1011.5
20260509232517 62 322 2.0 3.0 0.00 0.23 0.23 73 1011.4
20260509232014 65 254 0.0 0.0 0.00 0.23 0.23 61 1011.3
20260509231510 66 53 2.0 2.0 0.00 0.23 0.23 60 1011.5
20260509231008 67 283 2.0 3.0 0.00 0.23 0.23 57 1011.5
20260509230505 67 146 1.0 3.0 0.00 0.23 0.23 56 1011.8
20260509230001 67 259 4.0 6.0 0.00 0.23 0.23 55 1011.6
20260509225457 67 291 3.0 3.0 0.00 0.23 0.23 57 1011.5
20260509224953 67 223 3.0 6.0 0.00 0.23 0.23 56 1011.5
20260509224449 68 58 4.0 8.0 0.00 0.23 0.23 54 1011.7
20260509223946 68 72 2.0 6.0 0.00 0.23 0.23 54 1011.8
20260509223442 69 196 1.0 4.0 0.00 0.23 0.23 53 1011.9
20260509222940 69 319 4.0 7.0 0.00 0.23 0.23 54 1011.8
20260509222435 69 160 0.0 4.0 0.00 0.23 0.23 54 1011.7
20260509221931 68 338 3.0 4.0 0.00 0.23 0.23 54 1011.8
20260509221428 67 108 4.0 6.0 0.00 0.23 0.23 56 1012.1
20260509220924 67 18 4.0 6.0 0.00 0.23 0.23 55 1012.1
20260509220420 67 126 7.0 11.0 0.00 0.23 0.23 54 1011.8
20260509215916 67 57 2.0 7.0 0.00 0.23 0.23 56 1011.9
20260509215412 68 239 2.0 2.0 0.00 0.23 0.23 56 1012.1
20260509214909 68 358 0.0 7.0 0.00 0.23 0.23 55 1011.9
20260509214406 68 161 2.0 10.0 0.00 0.23 0.23 56 1011.8
20260509213904 69 276 1.0 7.0 0.00 0.23 0.23 55 1011.7
20260509213359 68 140 2.0 10.0 0.00 0.23 0.23 57 1011.9
20260509212857 67 127 4.0 4.0 0.00 0.23 0.23 57 1012.1
20260509212354 68 188 10.0 14.0 0.00 0.23 0.23 56 1012.1
20260509211850 68 74 4.0 8.0 0.00 0.23 0.23 54 1011.9
20260509211346 68 166 2.0 10.0 0.00 0.23 0.23 56 1011.9
20260509210842 68 230 3.0 4.0 0.00 0.23 0.23 57 1012.1
20260509210340 68 138 6.0 8.0 0.00 0.23 0.23 59 1011.9
20260509205840 67 310 1.0 3.0 0.00 0.23 0.23 61 1011.8
20260509205334 67 169 1.0 4.0 0.00 0.23 0.23 56 1011.7
20260509204831 68 199 8.0 10.0 0.00 0.23 0.23 57 1011.8
20260509204328 67 12 4.0 11.0 0.00 0.23 0.23 60 1011.8
20260509203824 67 135 1.0 6.0 0.00 0.23 0.23 58 1011.9
20260509203321 67 230 2.0 9.0 0.00 0.23 0.23 60 1012.1
20260509202817 67 281 2.0 4.0 0.00 0.23 0.23 60 1012.2
20260509202314 66 172 4.0 8.0 0.00 0.23 0.23 62 1012.3
20260509201813 67 98 0.0 3.0 0.00 0.23 0.23 61 1012.3
20260509201310 66 155 4.0 9.0 0.00 0.23 0.23 61 1012.2
20260509200806 68 269 1.0 7.0 0.00 0.23 0.23 58 1012.3
20260509200302 67 303 1.0 10.0 0.00 0.23 0.23 63 1012.3
20260509195758 67 16 2.0 4.0 0.00 0.23 0.23 58 1012.6
20260509195253 67 247 2.0 6.0 0.00 0.23 0.23 63 1012.5
20260509194748 66 47 3.0 8.0 0.00 0.23 0.23 59 1012.6
20260509194244 66 335 3.0 15.0 0.00 0.23 0.23 63 1012.8
20260509193742 66 212 5.0 10.0 0.00 0.23 0.23 64 1012.6
20260509193241 66 272 3.0 9.0 0.00 0.23 0.23 60 1012.9
20260509192738 66 119 5.0 7.0 0.00 0.23 0.23 60 1012.6
20260509192238 65 122 4.0 9.0 0.00 0.23 0.23 62 1012.8
20260509191734 65 307 9.0 10.0 0.00 0.23 0.23 61 1012.8
20260509191230 66 91 1.0 6.0 0.00 0.23 0.23 61 1012.8
20260509190726 65 82 1.0 13.0 0.00 0.23 0.23 60 1012.7
20260509190223 65 288 0.0 10.0 0.00 0.23 0.23 58 1012.6
20260509185721 64 272 2.0 3.0 0.00 0.23 0.23 61 1012.7
20260509185217 64 103 2.0 3.0 0.00 0.23 0.23 64 1012.7
20260509184715 64 202 8.0 10.0 0.00 0.23 0.23 60 1012.8
20260509184212 66 101 6.0 9.0 0.00 0.23 0.23 61 1012.6
20260509183708 66 263 3.0 4.0 0.00 0.23 0.23 62 1012.8
20260509183209 65 341 2.0 2.0 0.00 0.23 0.23 71 1012.9
20260509182704 64 347 2.0 3.0 0.00 0.23 0.23 65 1012.8
20260509182202 64 186 3.0 4.0 0.00 0.23 0.23 67 1012.8
20260509181700 62 115 2.0 4.0 0.00 0.23 0.23 71 1013.0
20260509181157 63 302 2.0 3.0 0.00 0.23 0.23 70 1012.9
20260509180654 63 302 0.0 2.0 0.00 0.23 0.23 71 1012.9
20260509180150 62 279 0.0 2.0 0.00 0.23 0.23 71 1012.7
20260509175646 62 133 0.0 4.0 0.00 0.23 0.23 72 1012.9
20260509175143 60 211 0.0 6.0 0.00 0.23 0.23 74 1012.6
20260509174639 60 143 0.0 2.0 0.00 0.23 0.23 74 1012.9
20260509174134 60 102 2.0 2.0 0.00 0.23 0.23 75 1012.8
20260509173630 60 253 0.0 0.0 0.00 0.23 0.23 76 1012.8
20260509173126 59 142 1.0 4.0 0.00 0.23 0.23 78 1012.7
20260509172623 59 122 4.0 7.0 0.00 0.23 0.23 78 1012.9
20260509172119 58 14 0.0 3.0 0.00 0.23 0.23 81 1013.0
20260509171615 58 134 0.0 3.0 0.00 0.23 0.23 81 1012.9
20260509171111 58 63 2.0 3.0 0.00 0.23 0.23 83 1013.0
20260509170607 58 216 2.0 3.0 0.00 0.23 0.23 83 1012.9
20260509170103 58 124 2.0 3.0 0.00 0.23 0.23 82 1013.0
20260509165602 57 163 1.0 3.0 0.00 0.23 0.23 83 1012.9
20260509165058 57 212 1.0 2.0 0.00 0.23 0.23 85 1012.9
20260509164554 56 228 2.0 4.0 0.00 0.23 0.23 85 1013.0
20260509164050 56 225 1.0 3.0 0.00 0.23 0.23 85 1013.0
20260509163549 56 121 1.0 2.0 0.00 0.23 0.23 86 1013.1
20260509163049 56 181 1.0 1.0 0.00 0.23 0.23 85 1013.3
20260509162546 56 171 0.0 1.0 0.00 0.23 0.23 86 1013.1
20260509162042 56 174 0.0 2.0 0.00 0.23 0.23 85 1013.0
20260509161538 56 203 2.0 2.0 0.00 0.23 0.23 85 1013.1
20260509161033 56 25 0.0 2.0 0.00 0.23 0.23 86 1013.2
20260509160530 56 16 0.0 2.0 0.00 0.23 0.23 85 1013.0
20260509160025 56 204 1.0 2.0 0.00 0.23 0.23 85 1013.1
20260509155521 56 215 0.0 2.0 0.00 0.23 0.23 86 1013.3
20260509155017 56 166 1.0 1.0 0.00 0.23 0.23 87 1013.1
20260509154514 56 203 2.0 3.0 0.00 0.23 0.23 86 1013.2
20260509154012 55 355 0.0 2.0 0.00 0.23 0.23 88 1013.1
20260509153508 55 182 0.0 0.0 0.00 0.23 0.23 88 1013.2
20260509153005 55 100 1.0 1.0 0.00 0.23 0.23 87 1013.2
20260509152501 55 154 0.0 1.0 0.00 0.23 0.23 88 1013.1
20260509151958 55 190 1.0 3.0 0.00 0.23 0.23 87 1013.2
20260509151454 55 175 1.0 3.0 0.00 0.23 0.23 86 1013.4
20260509150953 55 91 1.0 2.0 0.05 0.23 0.23 87 1013.5
20260509150450 55 223 0.0 2.0 0.05 0.23 0.23 87 1013.2
20260509145948 55 191 0.0 2.0 0.00 0.22 0.22 88 1013.6
20260509145443 54 196 0.0 2.0 0.00 0.22 0.22 88 1013.3
20260509144938 54 110 0.0 1.0 0.00 0.22 0.22 88 1013.6
20260509144436 54 155 0.0 0.0 0.00 0.22 0.22 88 1013.5
20260509143933 54 145 0.0 0.0 0.00 0.22 0.22 88 1013.4
20260509143430 54 176 1.0 1.0 0.00 0.22 0.22 88 1013.5
20260509142926 54 93 0.0 0.0 0.00 0.22 0.22 88 1013.7
20260509142423 53 63 0.0 0.0 0.00 0.22 0.22 88 1013.5
20260509141918 54 53 0.0 0.0 0.00 0.22 0.22 90 1013.5
20260509141416 54 55 0.0 0.0 0.00 0.22 0.22 90 1013.5
20260509140912 53 57 0.0 0.0 0.00 0.22 0.22 91 1013.6
20260509140409 53 59 0.0 0.0 0.00 0.22 0.22 91 1013.5
20260509135907 53 103 0.0 0.0 0.07 0.22 0.22 91 1013.7
20260509135404 53 118 0.0 0.0 0.00 0.21 0.21 90 1013.7
20260509134902 53 118 0.0 0.0 0.05 0.21 0.21 91 1013.6
20260509134359 53 120 0.0 0.0 0.05 0.21 0.21 91 1013.7
20260509133855 53 129 0.0 0.0 0.00 0.20 0.20 91 1013.8
20260509133352 53 151 0.0 0.0 0.07 0.20 0.20 91 1013.7
20260509132851 53 144 0.0 0.0 0.07 0.20 0.20 91 1013.6
20260509132349 52 152 0.0 0.0 0.05 0.19 0.19 91 1013.7
20260509131845 52 150 0.0 0.0 0.05 0.19 0.19 91 1013.7
20260509131342 52 180 0.0 0.0 0.00 0.18 0.18 91 1013.7
20260509130839 52 91 0.0 0.0 0.00 0.18 0.18 92 1013.7
20260509130334 52 96 0.0 0.0 0.00 0.18 0.18 92 1013.6
20260509125831 52 228 0.0 0.0 0.00 0.18 0.18 92 1013.8
20260509125328 52 228 0.0 0.0 0.00 0.18 0.18 92 1013.8
20260509124824 52 231 0.0 0.0 0.07 0.18 0.18 92 1013.7
20260509124321 52 238 0.0 0.0 0.07 0.18 0.18 92 1013.7
20260509123819 52 238 0.0 0.0 0.00 0.17 0.17 92 1013.6
20260509123316 52 238 0.0 0.0 0.05 0.17 0.17 93 1014.0
20260509122811 52 238 0.0 0.0 0.05 0.17 0.17 93 1013.8
20260509122309 52 238 0.0 0.0 0.00 0.16 0.16 93 1013.9
20260509121806 51 226 0.0 0.0 0.07 0.16 0.16 93 1014.1
20260509121303 51 226 0.0 0.0 0.00 0.15 0.15 93 1014.1
20260509120801 51 221 0.0 0.0 0.00 0.15 0.15 93 1014.1
20260509120259 51 261 0.0 0.0 0.05 0.15 0.15 93 1014.0
20260509115757 51 258 0.0 0.0 0.00 0.14 0.14 93 1014.0
20260509115253 51 256 0.0 0.0 0.07 0.14 0.14 93 1014.0
20260509114751 51 202 0.0 0.0 0.07 0.14 0.14 93 1014.0
20260509114250 51 202 0.0 0.0 0.00 0.13 0.13 93 1013.9
20260509113748 51 152 0.0 0.0 0.07 0.13 0.13 93 1013.9
20260509113245 51 148 0.0 0.0 0.07 0.13 0.13 93 1014.0
20260509112741 51 82 0.0 0.0 0.00 0.12 0.12 93 1014.0
20260509112238 51 22 0.0 0.0 0.00 0.12 0.12 93 1013.9
20260509111736 51 22 0.0 0.0 0.00 0.12 0.12 93 1013.9
20260509111232 50 3 0.0 0.0 0.00 0.12 0.12 92 1013.9
20260509110730 50 3 0.0 0.0 0.05 0.12 0.12 92 1013.8
20260509110226 51 15 0.0 0.0 0.05 0.12 0.12 92 1013.7
20260509105725 50 16 0.0 0.0 0.00 0.11 0.11 92 1013.7
20260509105222 50 18 0.0 0.0 0.00 0.11 0.11 92 1013.7
20260509104719 51 18 0.0 0.0 0.00 0.11 0.11 92 1013.5
20260509104216 51 18 0.0 0.0 0.07 0.11 0.11 92 1013.5
20260509103714 51 18 0.0 0.0 0.07 0.11 0.11 92 1013.5
20260509103211 50 18 0.0 0.0 0.00 0.10 0.10 92 1013.4
20260509102709 51 18 0.0 0.0 0.00 0.10 0.10 92 1013.6
20260509102206 50 18 0.0 0.0 0.00 0.10 0.10 92 1013.6
20260509101702 50 18 0.0 0.0 0.00 0.10 0.10 92 1013.6
20260509101158 50 18 0.0 0.0 0.05 0.10 0.10 92 1013.5
20260509100655 51 19 0.0 0.0 0.05 0.10 0.10 91 1013.7
20260509100152 51 19 0.0 0.0 0.00 0.09 0.09 91 1013.7
20260509095650 51 19 0.0 0.0 0.00 0.09 0.09 91 1013.5
20260509095147 51 56 0.0 0.0 0.00 0.09 0.09 91 1013.9
20260509094643 51 56 0.0 0.0 0.07 0.09 0.09 91 1013.8
20260509094140 51 56 0.0 0.0 0.00 0.08 0.08 91 1013.7
20260509093638 51 16 0.0 0.0 0.05 0.08 0.08 91 1013.8
20260509093135 51 16 0.0 0.0 0.05 0.08 0.08 91 1013.7
20260509092633 51 16 0.0 0.0 0.00 0.07 0.07 90 1013.8
20260509092132 51 16 0.0 0.0 0.00 0.07 0.07 90 1013.9
20260509091630 51 16 0.0 0.0 0.07 0.07 0.07 90 1014.1
20260509091125 51 20 0.0 0.0 0.07 0.07 0.07 90 1014.0
20260509090623 51 48 0.0 0.0 0.05 0.06 0.06 90 1014.1
20260509090120 51 48 0.0 0.0 0.05 0.06 0.06 89 1014.1
20260509085617 51 55 0.0 0.0 0.07 0.05 0.05 89 1014.3
20260509085113 51 43 0.0 0.0 0.07 0.05 0.05 89 1014.3
20260509084611 51 44 1.0 2.0 0.00 0.04 0.04 88 1014.2
20260509084108 52 53 2.0 2.0 0.00 0.04 0.04 87 1014.3
20260509083605 52 319 1.0 2.0 0.05 0.04 0.04 86 1014.4
20260509083101 52 65 1.0 1.0 0.05 0.04 0.04 87 1014.3
20260509082559 52 300 0.0 1.0 0.07 0.03 0.03 86 1014.2
20260509082055 53 34 2.0 3.0 0.14 0.03 0.03 85 1014.0
20260509081552 53 58 0.0 0.0 0.12 0.02 0.02 82 1014.0
20260509081049 54 11 2.0 3.0 0.05 0.01 0.01 79 1014.1
20260509080547 55 43 4.0 6.0 0.00 0.00 0.00 76 1013.9
20260509080045 56 66 1.0 7.0 0.00 0.00 0.00 73 1014.1
20260509075542 56 322 3.0 16.0 0.00 0.00 0.00 70 1014.1
20260509075040 56 217 0.0 6.0 0.00 0.00 0.00 69 1014.2
20260509074537 57 114 6.0 11.0 0.00 0.00 0.00 67 1014.0
20260509074033 56 218 10.0 17.0 0.00 0.00 0.00 66 1014.0
20260509073530 53 208 5.0 9.0 0.00 0.00 0.00 73 1013.7
20260509073026 50 243 0.0 1.0 0.00 0.00 0.00 85 1013.5
20260509072523 50 252 0.0 0.0 0.00 0.00 0.00 85 1013.2
20260509072020 50 243 0.0 0.0 0.00 0.00 0.00 85 1013.2
20260509071517 50 271 0.0 0.0 0.00 0.00 0.00 85 1013.1
20260509071014 50 262 0.0 1.0 0.00 0.00 0.00 84 1013.1
20260509070511 50 181 0.0 1.0 0.00 0.00 0.00 84 1013.3
20260509070008 50 311 0.0 0.0 0.00 0.00 0.00 85 1013.0
20260509065503 50 286 0.0 0.0 0.00 0.00 0.00 85 1013.0
20260509064959 50 265 0.0 0.0 0.00 0.00 0.00 84 1012.8
20260509064457 50 247 0.0 0.0 0.00 0.00 0.00 84 1012.9
20260509063955 50 226 0.0 0.0 0.00 0.00 0.00 84 1012.7
20260509063450 49 294 0.0 0.0 0.00 0.00 0.00 85 1012.7
20260509062947 50 282 0.0 0.0 0.00 0.00 0.00 86 1012.7
20260509062445 50 323 0.0 0.0 0.00 0.00 0.00 85 1012.8
20260509061942 50 323 0.0 0.0 0.00 0.00 0.00 86 1013.0
20260509061439 50 323 0.0 0.0 0.00 0.00 0.00 86 1013.0
20260509060936 50 323 0.0 0.0 0.00 0.00 0.00 86 1013.0
20260509060434 50 323 0.0 0.0 0.00 0.00 0.00 86 1013.0
20260509055929 50 323 0.0 0.0 0.00 0.00 0.00 86 1013.1
20260509055424 50 323 0.0 0.0 0.00 0.00 0.00 85 1013.2
20260509054921 50 323 0.0 0.0 0.00 0.00 0.00 85 1013.3
20260509054418 50 323 0.0 0.0 0.00 0.00 0.00 86 1013.1
20260509053916 50 323 0.0 0.0 0.00 0.00 0.00 85 1013.3
20260509053414 50 323 0.0 0.0 0.00 0.00 0.00 85 1013.4
20260509052912 51 323 0.0 0.0 0.00 0.00 0.00 85 1013.2
20260509052409 51 323 0.0 0.0 0.00 0.00 0.00 85 1013.3
20260509051907 51 324 0.0 0.0 0.00 0.00 0.00 85 1013.3
20260509051404 51 324 0.0 0.0 0.00 0.00 0.00 84 1013.5
20260509050901 51 325 0.0 0.0 0.00 0.00 0.00 83 1013.4
20260509050358 51 325 0.0 0.0 0.00 0.00 0.00 83 1013.6
20260509045854 51 325 0.0 0.0 0.00 0.00 0.00 82 1013.4
20260509045351 51 326 0.0 0.0 0.00 0.00 0.00 82 1013.6
20260509044849 52 326 0.0 0.0 0.00 0.00 0.00 83 1013.5
20260509044346 52 326 0.0 0.0 0.00 0.00 0.00 83 1013.5
20260509043843 52 325 0.0 0.0 0.00 0.00 0.00 82 1013.4
20260509043338 52 316 0.0 2.0 0.00 0.00 0.00 84 1013.8
20260509042834 52 335 0.0 2.0 0.00 0.00 0.00 85 1013.7
20260509042331 52 283 0.0 0.0 0.00 0.00 0.00 84 1013.7
20260509041828 52 267 0.0 0.0 0.00 0.00 0.00 84 1013.8
20260509041325 52 230 0.0 0.0 0.00 0.00 0.00 84 1013.9
20260509040823 52 227 0.0 0.0 0.00 0.00 0.00 82 1013.9
20260509040320 52 227 0.0 0.0 0.00 0.00 0.00 82 1014.0
20260509035817 53 227 0.0 0.0 0.00 0.00 0.00 84 1014.0
20260509035314 52 227 0.0 0.0 0.00 0.00 0.00 83 1014.0
20260509034810 53 227 0.0 0.0 0.00 0.00 0.00 83 1014.0
20260509034308 53 227 0.0 0.0 0.00 0.00 0.00 84 1014.2
20260509033800 53 227 0.0 0.0 0.00 0.00 0.00 83 1014.1